Location: Zagreb
(45.8000°N, 16.0000°E)
Time: 03:35:08
(UTC+02:00)

Tiros 1 despin weight - Pass Details

Date: 20 July 2024
Orbit: 562 x 601 km, 48.2° (Epoch: 06 July)

Event Time Altitude Azimuth Distance (km) Brightness Sun altitude
Exits shadow 01:29:42 - 100° (E) 1,988 ? -23.3°
Enters shadow 02:32:42 -61° 242° (WSW) 11,770 ? -20.5°
Maximum altitude 03:07:13 54° 152° (SSE) 694 ? -17.8°
